NOAA 16 DEB, 42408

Orbit data source: Space-Track

NOAA 16 DEB, 42408 is space debris in SSO originally from a launch on Thu, 21 Sep 2000 UTC launched from the Air Force Western Test Range (AFWTR). Debris objects in space refer to the collection of defunct objects orbiting the Earth. Examples of debris include non-operational satellites, rocket bodies, and fragments generated from explosions, collisions, or faulty payload assembly.

Loading next visibility...
Identifier
42408, 2000-055TC
Orbit
SSO
Country
Flag of USUS
Related business
Manufacturer
Unknown
Mission
Spacecraft
Bus & Motor
Unknown
Mass
Unknown
Launch date (UTC)
2000-09-21 (26 years ago)
Launch vehicle
Unknown
Launch site
Air Force Western Test Range (AFWTR)
Object type
Payload
Rocket body
Debris
Shape & HBR
Unknown shape, 0.085 m
Radar Cross Section
Medium (>0.1 m² and <1 m²)

Expand to show TLE details & history
Last TLE update: 7 hours ago

TLE from 7 hours ago
0 NOAA 16 DEB
1 42408U 00055TC  26267.10846197  .00002050  00000-0  89707-3 0  9998
2 42408  98.7157 327.1155 0017364 228.7215 131.2469 14.24784696541859
Epoch: 2026-09-24T02:36Z
TLE epoch observation values (Epoch: 2026-09-24T02:36:11.114Z)
Latitude
-0.00005°
Longitude
-74.88077°
Altitude
820.38 km
Speed
7.439 km/s
True Right ascension
21h 48m 27s
True Declination
0° 00' 00"
Sunlit
Object was in full shadow at epoch
Visualization orbit readout
Latitude
Unknown
Longitude
Unknown
Altitude
Unknown
Speed
Unknown
Apparent Right ascension
Unknown
Apparent Declination
Unknown
Sunlit
N/A
Visualization observer readout
Local Sidereal Time
02:34:49
Azimuth
Unknown
Elevation
Unknown
Doppler factor
Unknown
Orbital elements
Apogee altitude
818.844 km
Perigee altitude
793.894 km
Semi-major axis
7,184.506 km
Eccentricity
0.00174
Inclination
98.7157°
RAAN
327.1155°
Arg. of periapsis
228.7215°
True anomaly
131.39629°
Mean anomaly
131.2469°
Eccentric anomaly
131.32162°
Mean motion
3.56408 °/min
Orbital period
101.01 mins
BSTAR
0.00089707
Loading maneuver chart data...
Computing Atmospheric mass density...
Loading historical data...
Loading historical data...
Loading historical data...
Loading historical data...
Loading historical data...
Loading historical data...
Loading historical data...

Documentation

Showing up to 5 results
|